Date String (YYYY-MM-DD hh:mm:ss) UTC,Instrument flags,Ambient pressure (hPa),Sample flow (lpm),Bypass flow (lpm),Sample temperature (°C),Ambient temperature (°C),ASC tube jacket temperature (°C),LED temperature (°C),Box temperature (°C),Sample RH (%),Span deviation,Mass concentration (μg/m³),Mass concentration (μg/m³),Mass concentration (μg/m³)
DateTimeUTC,F1_M11,P_M11,Q1_M11,Q2_M11,T1_M11,T2_M11,T3_M11,T4_M11,T5_M11,U1_M11,ZSPAN_M11,X2_M11,X0_M11,X1_M11
2022-05-03 08:00:00,,0823.1,5.00,0.00,23.4,22.6,00.0,32.3,25.2,22.4,0000.0,0004.36,0004.65,0004.26
2022-05-03 08:01:00,,0823.1,5.01,0.00,23.4,22.7,00.0,32.3,25.1,22.5,0000.0,0004.40,0004.68,0004.31
2022-05-03 08:02:00,,0823.1,4.99,0.00,23.4,22.6,00.0,32.3,25.1,23.6,0000.0,0004.44,0004.72,0004.35
2022-05-03 08:03:00,,0823.1,4.99,0.00,23.4,22.6,00.0,32.3,25.2,24.6,0000.0,0004.48,0004.73,0004.40
2022-05-03 08:04:00,,0823.1,5.01,0.00,23.4,22.6,00.0,32.3,25.2,23.3,0000.0,0004.52,0004.79,0004.44
2022-05-03 08:05:00,,0823.1,5.00,0.00,23.4,22.6,00.0,32.3,25.2,22.9,0000.0,0004.57,0004.86,0004.49
2022-05-03 08:06:00,,0823.1,4.99,0.00,23.4,22.6,00.0,32.3,25.1,22.7,0000.0,0004.62,0004.92,0004.53
2022-05-03 08:07:00,,0823.1,5.01,0.00,23.4,22.6,00.0,32.3,25.2,22.7,0000.0,0004.66,0004.96,0004.57
2022-05-03 08:08:00,,0823.1,4.99,0.00,23.4,22.6,00.0,32.3,25.2,22.6,0000.0,0004.71,0004.94,0004.63
2022-05-03 08:09:00,,0823.0,4.99,0.00,23.4,22.7,00.0,32.3,25.2,22.6,0000.0,0004.73,0004.85,0004.67
2022-05-03 08:10:00,,0823.1,5.01,0.00,23.4,22.6,00.0,32.3,25.1,22.5,0000.0,0004.77,0004.90,0004.71
2022-05-03 08:11:00,,0823.0,4.99,0.00,23.4,22.6,00.0,32.3,25.2,22.5,0000.0,0004.81,0005.77,0004.75
2022-05-03 08:12:00,,0823.0,5.01,0.00,23.4,22.6,00.0,32.3,25.2,22.5,0000.0,0004.85,0005.89,0004.79
2022-05-03 08:13:00,,0823.0,4.99,0.00,23.4,22.7,00.0,32.3,25.2,22.5,0000.0,0004.89,0005.95,0004.83
2022-05-03 08:14:00,,0823.0,4.99,0.00,23.4,22.7,00.0,32.3,25.2,22.5,0000.0,0004.92,0005.98,0004.84
2022-05-03 08:15:00,,0823.0,5.02,0.00,23.4,22.7,00.0,32.3,25.2,22.5,0000.0,0004.95,0006.01,0004.88
2022-05-03 08:16:00,,0822.9,4.99,0.00,23.4,22.7,00.0,32.3,25.2,22.5,0000.0,0004.99,0006.06,0004.91
2022-05-03 08:17:00,,0822.9,5.01,0.00,23.4,22.6,00.0,32.3,25.2,22.4,0000.0,0005.02,0006.13,0004.95
2022-05-03 08:18:00,,0823.0,5.00,0.00,23.4,22.6,00.0,32.3,25.1,22.4,0000.0,0005.05,0006.14,0004.98
2022-05-03 08:19:00,,0823.0,5.00,0.00,23.4,22.6,00.0,32.3,25.2,22.4,0000.0,0005.07,0006.28,0005.00
2022-05-03 08:20:00,,0823.0,5.01,0.00,23.4,22.6,00.0,32.3,25.2,22.4,0000.0,0005.11,0006.35,0005.03
2022-05-03 08:21:00,,0823.0,5.00,0.00,23.4,22.7,00.0,32.3,25.2,22.3,0000.0,0005.13,0006.34,0005.07
2022-05-03 08:22:00,,0823.0,5.00,0.00,23.4,22.7,00.0,32.3,25.2,22.3,0000.0,0005.14,0005.62,0005.08
2022-05-03 08:23:00,,0822.9,5.01,0.00,23.4,22.7,00.0,32.3,25.2,22.3,0000.0,0005.16,0005.50,0005.11
2022-05-03 08:24:00,,0822.9,5.00,0.00,23.4,22.7,00.0,32.3,25.2,22.3,0000.0,0005.19,0005.51,0005.15
2022-05-03 08:25:00,,0822.9,5.00,0.00,23.4,22.7,00.0,32.3,25.2,22.3,0000.0,0005.22,0005.55,0005.17
2022-05-03 08:26:00,,0822.9,5.01,0.00,23.4,22.7,00.0,32.3,25.2,22.3,0000.0,0005.25,0005.63,0005.20
2022-05-03 08:27:00,,0822.8,4.99,0.00,23.4,22.7,00.0,32.3,25.2,22.3,0000.0,0005.28,0005.72,0005.24
2022-05-03 08:28:00,,0822.8,4.99,0.00,23.4,22.7,00.0,32.3,25.1,22.3,0000.0,0005.30,0005.73,0005.25
2022-05-03 08:29:00,,0822.7,5.02,0.00,23.3,22.6,00.0,32.3,25.1,22.3,0000.0,0005.34,0006.00,0005.27
2022-05-03 08:30:00,,0822.7,4.99,0.00,23.3,22.6,00.0,32.3,25.1,22.4,0000.0,0005.38,0006.11,0005.30
2022-05-03 08:31:00,,0822.7,5.00,0.00,23.3,22.6,00.0,32.3,25.1,22.3,0000.0,0005.41,0006.22,0005.33
2022-05-03 08:32:00,,0822.7,5.01,0.00,23.3,22.6,00.0,32.3,25.1,22.3,0000.0,0005.45,0006.61,0005.35
2022-05-03 08:33:00,,0822.7,4.99,0.00,23.4,22.6,00.0,32.3,25.2,22.3,0000.0,0005.48,0006.71,0005.37
2022-05-03 08:34:00,,0822.7,4.99,0.00,23.4,22.7,00.0,32.3,25.2,22.3,0000.0,0005.50,0006.74,0005.40
2022-05-03 08:35:00,,0822.7,5.01,0.00,23.4,22.7,00.0,32.3,25.2,22.3,0000.0,0005.52,0006.76,0005.41
2022-05-03 08:36:00,,0822.7,5.00,0.00,23.4,22.7,00.0,32.3,25.2,22.3,0000.0,0005.54,0006.77,0005.44
2022-05-03 08:37:00,,0822.7,5.00,0.00,23.4,22.7,00.0,32.3,25.2,22.3,0000.0,0005.57,0006.78,0005.47
2022-05-03 08:38:00,,0822.6,5.00,0.00,23.4,22.7,00.0,32.3,25.2,22.3,0000.0,0005.58,0006.72,0005.49
2022-05-03 08:39:00,,0822.6,5.01,0.00,23.4,22.7,00.0,32.3,25.2,22.3,0000.0,0005.60,0006.75,0005.51
2022-05-03 08:40:00,,0822.7,4.99,0.00,23.4,22.7,00.0,32.3,25.2,22.3,0000.0,0005.61,0006.75,0005.52
2022-05-03 08:41:00,,0822.7,5.02,0.00,23.4,22.7,00.0,32.3,25.2,22.2,0000.0,0005.61,0006.56,0005.53
2022-05-03 08:42:00,,0822.6,4.99,0.00,23.4,22.6,00.0,32.3,25.2,22.2,0000.0,0005.64,0006.69,0005.54
2022-05-03 08:43:00,,0822.6,5.00,0.00,23.4,22.6,00.0,32.3,25.2,22.2,0000.0,0005.63,0006.38,0005.54
2022-05-03 08:44:00,,0822.6,5.00,0.00,23.4,22.7,00.0,32.3,25.2,22.2,0000.0,0005.64,0006.32,0005.55
2022-05-03 08:45:00,,0822.6,5.01,0.00,23.4,22.7,00.0,32.3,25.2,22.2,0000.0,0005.66,0006.39,0005.56
2022-05-03 08:46:00,,0822.6,4.99,0.00,23.4,22.7,00.0,32.3,25.2,22.2,0000.0,0005.68,0006.46,0005.57
2022-05-03 08:47:00,,0822.6,4.99,0.00,23.4,22.7,00.0,32.3,25.2,22.2,0000.0,0005.68,0006.97,0005.57
2022-05-03 08:48:00,,0822.6,5.01,0.00,23.4,22.7,00.0,32.4,25.2,22.2,0000.0,0005.70,0007.46,0005.57
2022-05-03 08:49:00,,0822.6,4.99,0.00,23.4,22.6,00.0,32.4,25.2,22.2,0000.0,0005.70,0007.49,0005.56
2022-05-03 08:50:00,,0822.5,4.99,0.00,23.4,22.6,00.0,32.4,25.2,22.2,0000.0,0005.70,0007.49,0005.55
2022-05-03 08:51:00,,0822.5,5.02,0.00,23.4,22.6,00.0,32.3,25.2,22.2,0000.0,0005.71,0007.47,0005.57
2022-05-03 08:52:00,,0822.5,4.99,0.00,23.4,22.6,00.0,32.3,25.2,22.2,0000.0,0005.70,0007.45,0005.57
2022-05-03 08:53:00,,0822.5,5.01,0.00,23.4,22.6,00.0,32.3,25.2,22.2,0000.0,0005.68,0007.39,0005.55
2022-05-03 08:54:00,,0822.5,5.00,0.00,23.4,22.6,00.0,32.3,25.2,22.2,0000.0,0005.66,0007.48,0005.55
2022-05-03 08:55:00,,0822.5,5.00,0.00,23.4,22.7,00.0,32.4,25.2,22.2,0000.0,0005.66,0007.61,0005.55
2022-05-03 08:56:00,,0822.5,5.01,0.00,23.4,22.7,00.0,32.4,25.2,22.1,0000.0,0005.64,0007.59,0005.54
2022-05-03 08:57:00,,0822.5,4.99,0.00,23.4,22.7,00.0,32.4,25.2,22.1,0000.0,0005.65,0007.61,0005.54
2022-05-03 08:58:00,,0822.5,5.01,0.00,23.4,22.7,00.0,32.4,25.2,22.1,0000.0,0005.64,0007.32,0005.53
2022-05-03 08:59:00,,0822.5,5.00,0.00,23.4,22.7,00.0,32.4,25.2,22.1,0000.0,0005.62,0007.38,0005.52
